Regional Weather Roundup
Issued by NWS

Home | Current Version | Previous Version | Text Only | Print | Product List | Glossary Off
Versions: 1 2 3 4 5 6 7 8 9 10 11 12 13 14 15 16 17 18 19 20 21 22 23 24 25 26 27 28 29 30 31 32 33 34 35 36 37 38 39 40 41 42 43 44 45 46 47 48 49 50

000
ASUS45 KBOU 250807
RWRCO

WEATHER ROUNDUP FOR COLORADO
NATIONAL WEATHER SERVICE DENVER/BOULDER CO
100 AM MST SUN JAN 25 2015

NOTE: "FAIR" INDICATES FEW OR NO CLOUDS BELOW 12000 FEET WITH NO
SIGNIFICANT WEATHER AND/OR OBSTRUCTIONS TO VISIBILITY.

COZ001>005-013-030-031-250900-
...NORTHWEST COLORADO...

CITY           SKY/WX    TMP DP  RH WIND       PRES   REMARKS
CRAIG            N/A     19  14  81 NE3       30.34F
HAYDEN         CLOUDY    25  16  68 SW5       30.33S WCI  19
MEEKER         PTCLDY    10   6  84 E3        30.36F
MOUNT WERNER   NOT AVBL
STEAMBOAT SPGS CLOUDY    25  17  72 CALM      30.32S
WALDEN         PTCLDY    25  21  86 S6        30.25S WCI  18
$$

COZ006>008-011-250900-
...WEST CENTRAL VALLEYS...

CITY           SKY/WX    TMP DP  RH WIND       PRES   REMARKS
GRAND JUNCTION CLEAR     24  17  74 SE8       30.38S WCI  15
MONTROSE       PTCLDY    20  13  74 SE9       30.40F WCI   9
EAGLE          CLOUDY    27  19  74 CALM      30.37S
RIFLE          MOCLDY    25  16  68 CALM      30.39F
DELTA          PTCLDY    25  16  68 NE6       30.40F WCI  18
NUCLA          PTCLDY    23  16  74 E8        30.39F WCI  14
$$

COZ017>023-064>068-250900-
...SOUTHWEST COLORADO...

CITY           SKY/WX    TMP DP  RH WIND       PRES   REMARKS
DURANGO        PTCLDY    20  15  81 N5        30.27F WCI  13
CORTEZ         CLEAR     20  15  81 E7        30.28S WCI  11
PAGOSA SPRINGS PTCLDY    17  15  95 CALM      30.28R
TELLURIDE      PTCLDY    27  12  54 E6        30.38F WCI  20
WOLF CREEK PAS NOT AVBL
$$

COZ009-010-012-014-032>034-037-058>063-250900-
...CENTRAL COLORADO...

CITY           SKY/WX    TMP DP  RH WIND       PRES   REMARKS
ASPEN          CLOUDY    26  17  68 N5        30.34F WCI  20
BUENA VISTA    PTCLDY    28  18  66 W7        30.23F WCI  20
COPPER MTN     LGT SNOW  23  18  80 W31G45    30.29F WCI   5
BERTHOUD PASS  NOT AVBL
COTTONWOOD PAS PTCLDY    34  18  51 W22G33    30.25R WCI  22
GUNNISON       PTCLDY    -6 -15  65 W3        30.40S
KREMMLING      CLOUDY    21  14  73 W3        30.31S
LEADVILLE      CLOUDY    26  17  68 N10       30.30F WCI  16
MONARCH PASS   PTCLDY    14   9  79 MISG      30.38S
SALIDA         PTCLDY    37  16  42 NW10G17   30.31R
SUNLIGHT       CLOUDY    27  23  86 CALM        N/A
WILKERSON PASS PTCLDY    23  14  68 NW15G30   30.23F WCI  10
$$

COZ069>075-250900-
...SAN LUIS VALLEY/SANGRE DE CRISTO MOUNTAINS...

CITY           SKY/WX    TMP DP  RH WIND       PRES   REMARKS
ALAMOSA        MOCLDY     6   3  87 S3        30.28S
LA VETA PASS   NOT AVBL
SAGUACHE       PTCLDY    32  19  59 N13G23    30.28F WCI  22
$$

COZ035-036-038>040-250900-
...NORTHERN COLORADO FRONT RANGE...

CITY           SKY/WX    TMP DP  RH WIND       PRES   REMARKS
DENVER INTL AP PTCLDY    31  26  82 S10       30.13F WCI  22
DMNS CITY PARK   N/A     32  26  77 SE6       30.13S WCI  27
AURORA         PTCLDY    29  27  93 SE9       30.14F WCI  20
FRONT RANGE AP NOT AVBL
ERIE MUNI ARPT CLEAR     34  28  80 SE12      30.12F WCI  25
BOULDER MUN AP CLEAR     32  27  80 N7        30.11F WCI  26
CENTENNIAL     PTCLDY    31  26  82 S8        30.14F WCI  23
BROOMFIELD     CLEAR     37  28  70 CALM      30.12F
FORT COLLINS   CLEAR     30  25  80 SE7       30.13F WCI  23
LONGMONT       CLEAR     35  28  73 CALM      30.14F
$$

COZ041-046-047-076>085-087-088-250900-
...PIKES PEAK/PALMER DIVIDE AND SOUTHERN FOOTHILLS...

CITY           SKY/WX    TMP DP  RH WIND       PRES   REMARKS
COLO. SPRINGS  CLEAR     33  25  72 N18       30.13F WCI  22
A. F. ACADEMY  CLEAR     30  22  72 N9        30.14F WCI  21
ELLICOTT       CLEAR    N/A N/A N/A NE23      30.11F
FALCON         CLEAR     29  25  84 N12       30.16F WCI  19
FORT CARSON    CLEAR     33  23  67 N7        30.12S WCI  27
LIMON          CLOUDY    34  26  72 NW21G26   30.14F WCI  22
MONUMENT HILL  CLEAR     23  21  93 CALM      30.15F
TRINIDAD       CLEAR     32  22  66 W8        30.17R WCI  25
$$

COZ042>045-048>051-090-091-250900-
...NORTHEAST COLORADO...

CITY           SKY/WX    TMP DP  RH WIND       PRES   REMARKS
GREELEY ARPT   PTCLDY    36  25  64 SW6       30.10S
AKRON          CLEAR     35  27  72 NW17      30.09S WCI  25
BURLINGTON     MOCLDY    38  26  62 NW23G29   30.08R
WRAY           CLEAR     39  28  64 NW22      30.05S
STERLING       CLEAR     39  32  75 NW20      30.08S
HOLYOKE        CLEAR     37  28  70 NW21G29   30.03S
FORT MORGAN    CLEAR     37  26  62 N20G29    30.12F
$$

COZ086-089-092>099-250900-
...SOUTHEAST COLORADO...

CITY           SKY/WX    TMP DP  RH WIND       PRES   REMARKS
PUEBLO         CLEAR     36  26  67 CALM      30.16R
LA JUNTA       CLEAR     37  27  67 N10       30.15R
LAMAR          PTCLDY    41  27  57 N22G29    30.06F
SPRINGFIELD      N/A     37  28  70 N20       30.09F
$$



USA.gov is the U.S. government's official web portal to all federal, state and local government web resources and services.